Location: Street
(51.1247°N, 2.7429°W)
Time: 05:47:25
(UTC+00:00)

SR - Pass Details

Date: 03 December 2020
Orbit: 575 x 880 km, 66.7° (Epoch: 25 January)

Event Time Altitude Azimuth Distance (km) Brightness Sun altitude
Rises 17:55:33 0° 215° (SW) 2,823 ? -16.3°
Reaches altitude 10° 17:57:43 10° 215° (SW) 1,952 ? -16.6°
Maximum altitude 18:02:06 88° 127° (SE) 644 ? -17.3°
Enters shadow 18:04:40 27° 38° (NE) 1,272 ? -17.7°
Drops below altitude 10° 18:06:53 10° 38° (NE) 2,125 - -18.0°
Sets 18:09:19 0° 39° (NE) 3,096 - -18.4°
